Time,TemperatureF,DewpointF,PressureIn,WindDirection,WindDirectionDegrees,WindSpeedMPH,WindSpeedGustMPH,Humidity,HourlyPrecipIn,Conditions,Clouds,dailyrainin,SoftwareType,DateUTC
2013-03-26 00:05:00,33.4,33.4,29.00,North,-999,-999.0,-999.0,100,-99.99,,,-99.99,WSDL version 342,2013-03-26 04:05:00,
2013-03-26 00:06:00,33.4,33.4,29.00,North,-999,-999.0,-999.0,100,-99.99,,,-99.99,WSDL version 342,2013-03-26 04:06:00,
2013-03-26 00:07:00,33.4,33.4,29.00,North,-999,-999.0,-999.0,100,-99.99,,,-99.99,WSDL version 342,2013-03-26 04:07:00,
2013-03-26 00:12:00,33.3,33.3,29.00,North,-999,-999.0,-999.0,100,-99.99,,,-99.99,WSDL version 342,2013-03-26 04:12:00,
2013-03-26 00:17:00,33.4,33.4,29.00,North,-999,-999.0,-999.0,100,-99.99,,,-99.99,WSDL version 342,2013-03-26 04:17:00,
2013-03-26 00:20:00,33.4,33.4,29.00,North,-999,-999.0,-999.0,100,-99.99,,,-99.99,WSDL version 342,2013-03-26 04:20:00,
2013-03-26 00:25:00,33.4,33.4,29.00,North,-999,-999.0,-999.0,100,-99.99,,,-99.99,WSDL version 342,2013-03-26 04:25:00,
2013-03-26 00:30:00,33.4,33.4,29.00,North,-999,-999.0,-999.0,100,-99.99,,,-99.99,WSDL version 342,2013-03-26 04:30:00,
2013-03-26 00:35:00,33.4,33.4,29.00,North,-999,-999.0,-999.0,100,-99.99,,,-99.99,WSDL version 342,2013-03-26 04:35:00,
2013-03-26 00:40:00,33.4,33.4,29.00,North,-999,-999.0,-999.0,100,-99.99,,,-99.99,WSDL version 342,2013-03-26 04:40:00,
2013-03-26 00:45:00,33.4,33.4,29.00,North,-999,-999.0,-999.0,100,-99.99,,,-99.99,WSDL version 342,2013-03-26 04:45:00,
2013-03-26 00:50:00,33.4,33.4,29.00,North,-999,-999.0,-999.0,100,-99.99,,,-99.99,WSDL version 342,2013-03-26 04:50:00,
2013-03-26 00:55:00,33.4,33.4,29.00,North,-999,-999.0,-999.0,100,-99.99,,,-99.99,WSDL version 342,2013-03-26 04:55:00,
2013-03-26 01:00:00,33.3,33.3,29.00,North,-999,-999.0,-999.0,100,-99.99,,,-99.99,WSDL version 342,2013-03-26 05:00:00,
2013-03-26 01:07:00,33.4,33.4,29.00,North,-999,-999.0,-999.0,100,-99.99,,,-99.99,WSDL version 342,2013-03-26 05:07:00,
2013-03-26 01:12:00,33.4,33.4,29.00,North,-999,-999.0,-999.0,100,-99.99,,,-99.99,WSDL version 342,2013-03-26 05:12:00,
2013-03-26 01:17:00,33.4,33.4,29.00,North,-999,-999.0,-999.0,100,-99.99,,,-99.99,WSDL version 342,2013-03-26 05:17:00,
2013-03-26 01:22:00,33.4,33.4,29.03,North,-999,-999.0,-999.0,100,-99.99,,,-99.99,WSDL version 342,2013-03-26 05:22:00,
2013-03-26 01:30:00,33.3,33.3,29.03,North,-999,-999.0,-999.0,100,-99.99,,,-99.99,WSDL version 342,2013-03-26 05:30:00,
2013-03-26 01:38:00,33.3,33.3,29.03,North,-999,-999.0,-999.0,100,-99.99,,,-99.99,WSDL version 342,2013-03-26 05:38:00,
2013-03-26 01:43:00,33.3,33.3,29.03,North,-999,-999.0,-999.0,100,-99.99,,,-99.99,WSDL version 342,2013-03-26 05:43:00,
2013-03-26 01:51:00,33.1,33.1,29.03,North,-999,-999.0,-999.0,100,-99.99,,,-99.99,WSDL version 342,2013-03-26 05:51:00,
2013-03-26 01:56:00,33.1,33.1,29.03,North,-999,-999.0,-999.0,100,-99.99,,,-99.99,WSDL version 342,2013-03-26 05:56:00,
2013-03-26 02:01:00,33.1,33.1,29.03,North,-999,-999.0,-999.0,100,-99.99,,,-99.99,WSDL version 342,2013-03-26 06:01:00,
2013-03-26 02:06:00,33.1,33.1,29.06,North,-999,-999.0,-999.0,100,-99.99,,,-99.99,WSDL version 342,2013-03-26 06:06:00,
2013-03-26 02:11:00,33.1,33.1,29.06,North,-999,-999.0,-999.0,100,-99.99,,,-99.99,WSDL version 342,2013-03-26 06:11:00,
2013-03-26 02:19:00,33.1,33.1,29.03,North,-999,-999.0,-999.0,100,-99.99,,,-99.99,WSDL version 342,2013-03-26 06:19:00,
2013-03-26 02:24:00,33.1,33.1,29.03,North,-999,-999.0,-999.0,100,-99.99,,,-99.99,WSDL version 342,2013-03-26 06:24:00,
2013-03-26 02:30:00,33.1,33.1,29.03,North,-999,-999.0,-999.0,100,-99.99,,,-99.99,WSDL version 342,2013-03-26 06:30:00,
2013-03-26 02:35:00,33.1,33.1,29.03,North,-999,-999.0,-999.0,100,-99.99,,,-99.99,WSDL version 342,2013-03-26 06:35:00,
2013-03-26 02:40:00,33.1,33.1,29.03,North,-999,-999.0,-999.0,100,-99.99,,,-99.99,WSDL version 342,2013-03-26 06:40:00,
2013-03-26 02:45:00,33.1,33.1,29.03,North,-999,-999.0,-999.0,100,-99.99,,,-99.99,WSDL version 342,2013-03-26 06:45:00,
2013-03-26 02:50:00,33.1,33.1,29.03,North,-999,-999.0,-999.0,100,-99.99,,,-99.99,WSDL version 342,2013-03-26 06:50:00,
2013-03-26 02:55:00,33.1,33.1,29.03,North,-999,-999.0,-999.0,100,-99.99,,,-99.99,WSDL version 342,2013-03-26 06:55:00,
2013-03-26 03:00:00,33.1,33.1,29.03,North,-999,-999.0,-999.0,100,-99.99,,,-99.99,WSDL version 342,2013-03-26 07:00:00,
2013-03-26 03:05:00,33.1,33.1,29.00,North,-999,-999.0,-999.0,100,-99.99,,,-99.99,WSDL version 342,2013-03-26 07:05:00,
2013-03-26 03:10:00,33.1,33.1,29.00,North,-999,-999.0,-999.0,100,-99.99,,,-99.99,WSDL version 342,2013-03-26 07:10:00,
2013-03-26 03:15:00,33.1,33.1,29.00,North,-999,-999.0,-999.0,100,-99.99,,,-99.99,WSDL version 342,2013-03-26 07:15:00,
2013-03-26 03:20:00,33.1,33.1,29.03,North,-999,-999.0,-999.0,100,-99.99,,,-99.99,WSDL version 342,2013-03-26 07:20:00,
2013-03-26 03:25:00,33.1,33.1,29.03,North,-999,-999.0,-999.0,100,-99.99,,,-99.99,WSDL version 342,2013-03-26 07:25:00,
2013-03-26 03:30:00,33.1,33.1,29.03,North,-999,-999.0,-999.0,100,-99.99,,,-99.99,WSDL version 342,2013-03-26 07:30:00,
2013-03-26 03:37:00,33.1,33.1,29.03,North,-999,-999.0,-999.0,100,-99.99,,,-99.99,WSDL version 342,2013-03-26 07:37:00,
2013-03-26 03:43:00,33.2,33.2,29.03,North,-999,-999.0,-999.0,100,-99.99,,,-99.99,WSDL version 342,2013-03-26 07:43:00,
2013-03-26 03:48:00,33.3,33.3,29.03,North,-999,-999.0,-999.0,100,-99.99,,,-99.99,WSDL version 342,2013-03-26 07:48:00,
2013-03-26 03:53:00,33.3,33.3,29.03,North,-999,-999.0,-999.0,100,-99.99,,,-99.99,WSDL version 342,2013-03-26 07:53:00,
2013-03-26 03:58:00,33.3,33.3,29.03,North,-999,-999.0,-999.0,100,-99.99,,,-99.99,WSDL version 342,2013-03-26 07:58:00,
2013-03-26 04:03:00,33.3,33.3,29.03,North,-999,-999.0,-999.0,100,-99.99,,,-99.99,WSDL version 342,2013-03-26 08:03:00,
2013-03-26 04:08:00,33.3,33.3,29.03,West,270,4.1,5.6,100,-99.99,,,-99.99,WSDL version 342,2013-03-26 08:08:00,
2013-03-26 04:13:00,33.3,33.3,29.03,West,279,3.7,5.6,100,-99.99,,,-99.99,WSDL version 342,2013-03-26 08:13:00,
2013-03-26 04:18:00,33.3,33.3,29.03,West,270,3.5,4.3,100,-99.99,,,-99.99,WSDL version 342,2013-03-26 08:18:00,
2013-03-26 04:23:00,33.2,33.2,29.03,West,267,4.0,4.9,100,-99.99,,,-99.99,WSDL version 342,2013-03-26 08:23:00,
2013-03-26 04:28:00,33.3,33.3,29.03,WNW,289,3.4,6.0,100,-99.99,,,-99.99,WSDL version 342,2013-03-26 08:28:00,
2013-03-26 04:33:00,33.3,33.3,29.03,West,276,3.6,7.4,100,-99.99,,,-99.99,WSDL version 342,2013-03-26 08:33:00,
2013-03-26 04:38:00,33.3,33.3,29.03,West,263,3.5,7.4,100,-99.99,,,-99.99,WSDL version 342,2013-03-26 08:38:00,
2013-03-26 04:43:00,33.3,33.3,29.03,West,270,3.9,5.4,100,-99.99,,,-99.99,WSDL version 342,2013-03-26 08:43:00,
2013-03-26 04:48:00,33.3,33.3,29.06,WNW,284,3.3,5.4,100,-99.99,,,-99.99,WSDL version 342,2013-03-26 08:48:00,
2013-03-26 04:53:00,33.3,33.3,29.06,West,280,3.6,5.4,100,-99.99,,,-99.99,WSDL version 342,2013-03-26 08:53:00,
2013-03-26 04:58:00,33.3,33.3,29.06,West,276,3.5,4.7,100,-99.99,,,-99.99,WSDL version 342,2013-03-26 08:58:00,
2013-03-26 05:03:00,33.3,33.3,29.06,West,280,3.7,5.8,100,-99.99,,,-99.99,WSDL version 342,2013-03-26 09:03:00,
2013-03-26 05:08:00,33.1,33.1,29.06,WNW,283,3.7,5.8,100,-99.99,,,-99.99,WSDL version 342,2013-03-26 09:08:00,
2013-03-26 05:13:00,33.1,33.1,29.06,WNW,283,3.4,4.3,100,-99.99,,,-99.99,WSDL version 342,2013-03-26 09:13:00,
2013-03-26 05:18:00,33.1,33.1,29.06,WNW,283,3.4,4.3,100,-99.99,,,-99.99,WSDL version 342,2013-03-26 09:18:00,
2013-03-26 05:23:00,33.1,33.1,29.06,West,274,3.8,6.5,100,-99.99,,,-99.99,WSDL version 342,2013-03-26 09:23:00,
2013-03-26 05:28:00,33.1,32.8,29.06,West,279,3.7,6.5,99,-99.99,,,-99.99,WSDL version 342,2013-03-26 09:28:00,
2013-03-26 05:33:00,33.1,32.8,29.06,West,273,4.2,7.8,99,-99.99,,,-99.99,WSDL version 342,2013-03-26 09:33:00,
2013-03-26 05:40:00,33.1,32.8,29.09,West,264,3.9,7.8,99,-99.99,,,-99.99,WSDL version 342,2013-03-26 09:40:00,
2013-03-26 05:45:00,33.2,32.7,29.09,West,270,4.3,6.0,98,-99.99,,,-99.99,WSDL version 342,2013-03-26 09:45:00,
2013-03-26 05:50:00,33.2,32.5,29.09,West,281,3.5,5.6,97,-99.99,,,-99.99,WSDL version 342,2013-03-26 09:50:00,
2013-03-26 05:55:00,33.1,32.2,29.09,West,278,3.5,4.9,97,-99.99,,,-99.99,WSDL version 342,2013-03-26 09:55:00,
2013-03-26 06:00:00,33.1,32.2,29.09,West,275,3.7,4.9,97,-99.99,,,-99.99,WSDL version 342,2013-03-26 10:00:00,
2013-03-26 06:05:00,33.1,32.0,29.06,WNW,284,3.9,4.9,96,-99.99,,,-99.99,WSDL version 342,2013-03-26 10:05:00,
2013-03-26 06:10:00,33.1,31.9,29.06,WNW,286,3.7,4.5,94,-99.99,,,-99.99,WSDL version 342,2013-03-26 10:10:00,
2013-03-26 06:15:00,33.1,31.7,29.06,West,270,3.9,5.8,94,-99.99,,,-99.99,WSDL version 342,2013-03-26 10:15:00,
2013-03-26 06:20:00,33.0,31.6,29.09,West,260,2.9,5.8,94,-99.99,,,-99.99,WSDL version 342,2013-03-26 10:20:00,
2013-03-26 06:25:00,32.9,31.3,29.09,West,275,2.7,3.8,93,-99.99,,,-99.99,WSDL version 342,2013-03-26 10:25:00,
2013-03-26 06:30:00,32.9,31.2,29.09,West,270,2.8,3.8,93,-99.99,,,-99.99,WSDL version 342,2013-03-26 10:30:00,
2013-03-26 06:35:00,32.9,31.2,29.09,West,270,3.1,4.3,93,-99.99,,,-99.99,WSDL version 342,2013-03-26 10:35:00,
2013-03-26 06:40:00,32.8,30.8,29.09,WNW,285,3.3,4.7,92,-99.99,,,-99.99,WSDL version 342,2013-03-26 10:40:00,
2013-03-26 06:45:00,32.7,30.7,29.09,West,273,3.3,4.7,92,-99.99,,,-99.99,WSDL version 342,2013-03-26 10:45:00,
2013-03-26 06:50:00,32.7,30.5,29.12,WNW,284,3.3,4.3,91,-99.99,,,-99.99,WSDL version 342,2013-03-26 10:50:00,
2013-03-26 06:56:00,32.7,30.4,29.12,West,259,3.6,4.3,91,-99.99,,,-99.99,WSDL version 342,2013-03-26 10:56:00,
2013-03-26 07:01:00,32.7,30.4,29.12,West,276,3.6,4.7,91,-99.99,,,-99.99,WSDL version 342,2013-03-26 11:01:00,
2013-03-26 07:07:00,32.8,30.5,29.12,West,270,3.2,4.7,91,-99.99,,,-99.99,WSDL version 342,2013-03-26 11:07:00,
2013-03-26 07:12:00,32.8,30.2,29.12,West,281,3.2,4.3,90,-99.99,,,-99.99,WSDL version 342,2013-03-26 11:12:00,
2013-03-26 07:17:00,32.9,30.3,29.12,WNW,289,3.3,4.0,90,-99.99,,,-99.99,WSDL version 342,2013-03-26 11:17:00,
2013-03-26 07:22:00,32.9,30.3,29.12,WNW,293,3.3,4.3,90,-99.99,,,-99.99,WSDL version 342,2013-03-26 11:22:00,
2013-03-26 07:27:00,33.0,30.4,29.12,West,276,3.6,4.3,90,-99.99,,,-99.99,WSDL version 342,2013-03-26 11:27:00,
2013-03-26 07:32:00,33.1,30.5,29.12,WNW,287,3.0,4.3,90,-99.99,,,-99.99,WSDL version 342,2013-03-26 11:32:00,
2013-03-26 07:37:00,33.3,30.6,29.12,West,274,3.7,4.9,90,-99.99,,,-99.99,WSDL version 342,2013-03-26 11:37:00,
2013-03-26 07:42:00,33.3,30.5,29.12,West,273,3.0,4.9,89,-99.99,,,-99.99,WSDL version 342,2013-03-26 11:42:00,
2013-03-26 07:48:00,33.5,30.6,29.12,WSW,253,3.2,4.3,89,-99.99,,,-99.99,WSDL version 342,2013-03-26 11:48:00,
2013-03-26 07:53:00,33.7,30.7,29.12,West,281,3.6,5.6,88,-99.99,,,-99.99,WSDL version 342,2013-03-26 11:53:00,
2013-03-26 07:58:00,33.8,30.6,29.12,WNW,283,3.4,5.6,88,-99.99,,,-99.99,WSDL version 342,2013-03-26 11:58:00,
2013-03-26 08:03:00,34.0,30.5,29.12,West,270,2.8,4.3,87,-99.99,,,-99.99,WSDL version 342,2013-03-26 12:03:00,
2013-03-26 08:09:00,34.1,30.3,29.15,West,274,3.9,5.4,84,-99.99,,,-99.99,WSDL version 342,2013-03-26 12:09:00,
2013-03-26 08:14:00,34.5,30.0,29.15,West,266,3.1,5.8,83,-99.99,,,-99.99,WSDL version 342,2013-03-26 12:14:00,
2013-03-26 08:19:00,34.7,29.5,29.15,West,273,3.2,5.8,80,-99.99,,,-99.99,WSDL version 342,2013-03-26 12:19:00,
2013-03-26 08:24:00,35.1,29.0,29.15,WNW,293,3.3,5.4,78,-99.99,,,-99.99,WSDL version 342,2013-03-26 12:24:00,
2013-03-26 08:29:00,35.3,28.9,29.15,West,270,3.1,5.4,77,-99.99,,,-99.99,WSDL version 342,2013-03-26 12:29:00,
2013-03-26 08:34:00,35.5,28.4,29.15,West,267,3.9,5.8,74,-99.99,,,-99.99,WSDL version 342,2013-03-26 12:34:00,
2013-03-26 08:39:00,35.7,27.3,29.15,WNW,293,3.3,5.8,71,-99.99,,,-99.99,WSDL version 342,2013-03-26 12:39:00,
2013-03-26 08:44:00,35.8,26.1,29.15,WNW,290,4.7,6.5,66,-99.99,,,-99.99,WSDL version 342,2013-03-26 12:44:00,
2013-03-26 08:49:00,36.1,25.1,29.15,WNW,289,5.0,6.5,62,-99.99,,,-99.99,WSDL version 342,2013-03-26 12:49:00,
2013-03-26 08:54:00,36.3,24.7,29.15,West,264,4.4,6.9,62,-99.99,,,-99.99,WSDL version 342,2013-03-26 12:54:00,
2013-03-26 08:59:00,36.5,24.4,29.15,West,264,4.1,6.9,61,-99.99,,,-99.99,WSDL version 342,2013-03-26 12:59:00,
2013-03-26 09:04:00,36.7,23.7,29.15,West,263,4.4,6.3,58,-99.99,,,-99.99,WSDL version 342,2013-03-26 13:04:00,
2013-03-26 09:09:00,37.0,23.8,29.15,West,270,5.3,7.2,57,-99.99,,,-99.99,WSDL version 342,2013-03-26 13:09:00,
2013-03-26 09:14:00,37.5,23.9,29.15,West,281,4.2,7.2,57,-99.99,,,-99.99,WSDL version 342,2013-03-26 13:14:00,
2013-03-26 09:20:00,37.8,22.6,29.15,WSW,250,6.4,8.1,52,-99.99,,,-99.99,WSDL version 342,2013-03-26 13:20:00,
2013-03-26 09:25:00,38.0,22.6,29.15,West,273,3.3,8.1,54,-99.99,,,-99.99,WSDL version 342,2013-03-26 13:25:00,
2013-03-26 09:30:00,38.2,22.8,29.15,West,276,3.6,6.3,54,-99.99,,,-99.99,WSDL version 342,2013-03-26 13:30:00,
2013-03-26 09:35:00,38.3,22.4,29.12,West,260,5.4,6.5,51,-99.99,,,-99.99,WSDL version 342,2013-03-26 13:35:00,
2013-03-26 09:40:00,38.6,22.8,29.12,West,264,2.8,6.5,54,-99.99,,,-99.99,WSDL version 342,2013-03-26 13:40:00,
2013-03-26 09:45:00,38.8,23.1,29.12,West,280,3.0,5.8,52,-99.99,,,-99.99,WSDL version 342,2013-03-26 13:45:00,
2013-03-26 09:50:00,38.9,22.1,29.15,WNW,283,4.3,7.4,50,-99.99,,,-99.99,WSDL version 342,2013-03-26 13:50:00,
2013-03-26 09:55:00,39.0,21.4,29.15,West,260,3.3,7.4,49,-99.99,,,-99.99,WSDL version 342,2013-03-26 13:55:00,
2013-03-26 10:00:00,39.2,21.4,29.15,West,270,4.5,6.5,48,-99.99,,,-99.99,WSDL version 342,2013-03-26 14:00:00,
2013-03-26 10:05:00,39.7,22.3,29.15,West,280,4.0,6.3,49,-99.99,,,-99.99,WSDL version 342,2013-03-26 14:05:00,
2013-03-26 10:10:00,40.1,21.1,29.15,West,260,4.0,8.1,45,-99.99,,,-99.99,WSDL version 342,2013-03-26 14:10:00,
2013-03-26 10:15:00,40.1,19.7,29.15,WNW,302,5.8,12.1,42,-99.99,,,-99.99,WSDL version 342,2013-03-26 14:15:00,
2013-03-26 10:20:00,40.4,19.6,29.15,West,273,5.6,12.1,42,-99.99,,,-99.99,WSDL version 342,2013-03-26 14:20:00,
2013-03-26 10:25:00,40.7,19.6,29.15,West,278,3.6,10.5,43,-99.99,,,-99.99,WSDL version 342,2013-03-26 14:25:00,
2013-03-26 10:30:00,42.3,21.6,29.15,West,270,2.9,7.4,43,-99.99,,,-99.99,WSDL version 342,2013-03-26 14:30:00,
2013-03-26 10:35:00,42.8,20.0,29.15,WSW,255,5.6,8.5,39,-99.99,,,-99.99,WSDL version 342,2013-03-26 14:35:00,
2013-03-26 10:40:00,42.4,19.1,29.15,West,266,5.4,8.5,39,-99.99,,,-99.99,WSDL version 342,2013-03-26 14:40:00,
2013-03-26 10:45:00,42.3,18.5,29.15,WNW,300,4.9,11.0,38,-99.99,,,-99.99,WSDL version 342,2013-03-26 14:45:00,
2013-03-26 10:50:00,42.9,19.7,29.15,WNW,293,3.9,11.0,39,-99.99,,,-99.99,WSDL version 342,2013-03-26 14:50:00,
2013-03-26 10:55:00,42.8,19.5,29.15,WNW,290,5.3,7.6,39,-99.99,,,-99.99,WSDL version 342,2013-03-26 14:55:00,
2013-03-26 11:00:00,42.8,19.2,29.15,WNW,286,4.7,8.1,39,-99.99,,,-99.99,WSDL version 342,2013-03-26 15:00:00,
2013-03-26 11:05:00,43.3,19.4,29.12,West,259,5.8,9.6,38,-99.99,,,-99.99,WSDL version 342,2013-03-26 15:05:00,
2013-03-26 11:10:00,44.6,20.4,29.12,WNW,296,5.4,11.2,37,-99.99,,,-99.99,WSDL version 342,2013-03-26 15:10:00,
2013-03-26 11:15:00,45.1,20.2,29.12,West,267,5.4,11.2,37,-99.99,,,-99.99,WSDL version 342,2013-03-26 15:15:00,
2013-03-26 11:20:00,45.7,19.6,29.15,West,273,4.7,8.5,35,-99.99,,,-99.99,WSDL version 342,2013-03-26 15:20:00,
2013-03-26 11:25:00,47.3,21.7,29.15,WNW,288,4.3,8.5,36,-99.99,,,-99.99,WSDL version 342,2013-03-26 15:25:00,
2013-03-26 11:30:00,47.5,18.6,29.15,WNW,284,5.3,7.2,31,-99.99,,,-99.99,WSDL version 342,2013-03-26 15:30:00,
2013-03-26 11:35:00,47.6,19.2,29.15,WNW,283,4.0,7.8,34,-99.99,,,-99.99,WSDL version 342,2013-03-26 15:35:00,
2013-03-26 11:42:00,47.9,18.2,29.15,WNW,296,4.3,10.1,31,-99.99,,,-99.99,WSDL version 342,2013-03-26 15:42:00,
2013-03-26 11:47:00,48.1,17.3,29.15,WNW,289,5.3,10.1,29,-99.99,,,-99.99,WSDL version 342,2013-03-26 15:47:00,
2013-03-26 11:52:00,49.2,17.9,29.12,WNW,284,3.3,7.4,29,-99.99,,,-99.99,WSDL version 342,2013-03-26 15:52:00,
2013-03-26 11:57:00,49.5,17.7,29.12,West,262,3.2,6.3,28,-99.99,,,-99.99,WSDL version 342,2013-03-26 15:57:00,
2013-03-26 12:02:00,49.3,17.4,29.12,WNW,296,5.8,11.0,28,-99.99,,,-99.99,WSDL version 342,2013-03-26 16:02:00,
2013-03-26 12:07:00,49.2,17.1,29.15,West,278,5.0,11.0,27,-99.99,,,-99.99,WSDL version 342,2013-03-26 16:07:00,
2013-03-26 12:12:00,49.8,17.2,29.15,WSW,254,4.6,9.6,27,-99.99,,,-99.99,WSDL version 342,2013-03-26 16:12:00,
2013-03-26 12:17:00,49.6,16.3,29.15,WSW,254,7.3,9.8,26,-99.99,,,-99.99,WSDL version 342,2013-03-26 16:17:00,
2013-03-26 12:22:00,50.4,16.8,29.15,WSW,248,4.6,9.8,26,-99.99,,,-99.99,WSDL version 342,2013-03-26 16:22:00,
2013-03-26 12:27:00,51.5,18.2,29.15,WSW,253,5.1,7.2,26,-99.99,,,-99.99,WSDL version 342,2013-03-26 16:27:00,
2013-03-26 12:32:00,51.0,16.4,29.15,WNW,296,5.7,8.7,24,-99.99,,,-99.99,WSDL version 342,2013-03-26 16:32:00,
2013-03-26 12:37:00,50.2,15.7,29.12,West,267,4.1,8.7,26,-99.99,,,-99.99,WSDL version 342,2013-03-26 16:37:00,
2013-03-26 12:43:00,51.0,16.9,29.12,West,264,3.7,6.5,26,-99.99,,,-99.99,WSDL version 342,2013-03-26 16:43:00,
2013-03-26 12:48:00,52.8,17.7,29.12,NW,309,4.4,6.3,23,-99.99,,,-99.99,WSDL version 342,2013-03-26 16:48:00,
2013-03-26 12:53:00,51.2,13.6,29.15,WSW,248,4.1,7.6,24,-99.99,,,-99.99,WSDL version 342,2013-03-26 16:53:00,
2013-03-26 12:58:00,51.7,14.8,29.15,WSW,239,2.9,7.6,21,-99.99,,,-99.99,WSDL version 342,2013-03-26 16:58:00,
2013-03-26 13:03:00,52.3,13.5,29.15,WNW,300,6.3,7.4,21,-99.99,,,-99.99,WSDL version 342,2013-03-26 17:03:00,
2013-03-26 13:08:00,51.8,12.2,29.15,West,267,7.6,10.1,20,-99.99,,,-99.99,WSDL version 342,2013-03-26 17:08:00,
2013-03-26 13:13:00,50.7,12.2,29.15,West,276,4.8,10.1,21,-99.99,,,-99.99,WSDL version 342,2013-03-26 17:13:00,
2013-03-26 13:18:00,49.5,11.2,29.15,WNW,299,3.9,8.5,21,-99.99,,,-99.99,WSDL version 342,2013-03-26 17:18:00,
2013-03-26 13:23:00,49.1,10.9,29.15,West,276,4.3,8.5,21,-99.99,,,-99.99,WSDL version 342,2013-03-26 17:23:00,
2013-03-26 13:28:00,49.2,10.9,29.15,WNW,296,5.1,8.7,21,-99.99,,,-99.99,WSDL version 342,2013-03-26 17:28:00,
2013-03-26 13:33:00,49.1,10.8,29.15,West,264,3.5,8.7,21,-99.99,,,-99.99,WSDL version 342,2013-03-26 17:33:00,
2013-03-26 13:38:00,48.2,10.6,29.15,WSW,257,7.3,10.3,22,-99.99,,,-99.99,WSDL version 342,2013-03-26 17:38:00,
2013-03-26 13:43:00,48.1,10.5,29.15,WNW,296,3.5,10.3,21,-99.99,,,-99.99,WSDL version 342,2013-03-26 17:43:00,
2013-03-26 13:48:00,48.8,10.8,29.15,West,281,4.6,8.1,21,-99.99,,,-99.99,WSDL version 342,2013-03-26 17:48:00,
2013-03-26 13:53:00,51.2,12.6,29.12,West,267,4.3,8.1,21,-99.99,,,-99.99,WSDL version 342,2013-03-26 17:53:00,
2013-03-26 13:58:00,51.1,11.9,29.12,SW,236,3.4,8.1,21,-99.99,,,-99.99,WSDL version 342,2013-03-26 17:58:00,
2013-03-26 14:03:00,51.5,12.8,29.12,WSW,255,3.0,8.1,21,-99.99,,,-99.99,WSDL version 342,2013-03-26 18:03:00,
2013-03-26 14:08:00,53.5,13.6,29.15,West,273,3.7,7.6,21,-99.99,,,-99.99,WSDL version 342,2013-03-26 18:08:00,
2013-03-26 14:13:00,53.1,10.7,29.15,West,259,4.5,6.3,18,-99.99,,,-99.99,WSDL version 342,2013-03-26 18:13:00,
2013-03-26 14:18:00,52.3,10.0,29.15,WSW,257,2.1,6.3,18,-99.99,,,-99.99,WSDL version 342,2013-03-26 18:18:00,
2013-03-26 14:23:00,51.5,10.3,29.15,SSW,211,3.2,6.0,19,-99.99,,,-99.99,WSDL version 342,2013-03-26 18:23:00,
2013-03-26 14:28:00,51.1,10.3,29.15,WSW,251,3.7,9.6,19,-99.99,,,-99.99,WSDL version 342,2013-03-26 18:28:00,
2013-03-26 14:33:00,51.2,10.3,29.15,WSW,256,5.1,9.6,19,-99.99,,,-99.99,WSDL version 342,2013-03-26 18:33:00,
2013-03-26 14:38:00,50.3,9.6,29.15,WNW,286,4.5,10.1,19,-99.99,,,-99.99,WSDL version 342,2013-03-26 18:38:00,
2013-03-26 14:43:00,50.5,9.8,29.15,West,270,5.1,10.1,19,-99.99,,,-99.99,WSDL version 342,2013-03-26 18:43:00,
2013-03-26 14:48:00,50.8,10.0,29.15,West,274,4.0,7.8,19,-99.99,,,-99.99,WSDL version 342,2013-03-26 18:48:00,
2013-03-26 14:53:00,50.2,9.5,29.15,WNW,290,4.6,7.8,19,-99.99,,,-99.99,WSDL version 342,2013-03-26 18:53:00,
2013-03-26 14:58:00,49.8,9.2,29.15,West,274,5.0,7.8,19,-99.99,,,-99.99,WSDL version 342,2013-03-26 18:58:00,
2013-03-26 15:03:00,50.9,10.1,29.15,West,278,4.1,8.7,19,-99.99,,,-99.99,WSDL version 342,2013-03-26 19:03:00,
2013-03-26 15:08:00,51.0,10.2,29.15,WNW,289,5.2,10.3,19,-99.99,,,-99.99,WSDL version 342,2013-03-26 19:08:00,
2013-03-26 15:13:00,50.1,9.4,29.15,West,276,5.5,11.0,19,-99.99,,,-99.99,WSDL version 342,2013-03-26 19:13:00,
2013-03-26 15:18:00,50.5,9.7,29.15,West,264,4.8,11.0,19,-99.99,,,-99.99,WSDL version 342,2013-03-26 19:18:00,
2013-03-26 15:23:00,53.2,10.8,29.12,WSW,245,3.8,7.4,18,-99.99,,,-99.99,WSDL version 342,2013-03-26 19:23:00,
2013-03-26 15:28:00,54.8,11.8,29.12,SW,236,4.1,7.8,17,-99.99,,,-99.99,WSDL version 342,2013-03-26 19:28:00,
2013-03-26 15:33:00,54.5,11.9,29.12,WNW,289,3.4,10.3,18,-99.99,,,-99.99,WSDL version 342,2013-03-26 19:33:00,
2013-03-26 15:38:00,54.9,12.2,29.15,WSW,255,5.3,10.3,18,-99.99,,,-99.99,WSDL version 342,2013-03-26 19:38:00,
2013-03-26 15:43:00,53.8,11.3,29.15,WSW,255,5.4,10.5,18,-99.99,,,-99.99,WSDL version 342,2013-03-26 19:43:00,
2013-03-26 15:48:00,52.4,10.1,29.15,SW,231,6.1,10.5,18,-99.99,,,-99.99,WSDL version 342,2013-03-26 19:48:00,
2013-03-26 15:54:00,52.3,10.0,29.15,WNW,293,3.6,10.1,18,-99.99,,,-99.99,WSDL version 342,2013-03-26 19:54:00,
2013-03-26 15:59:00,51.9,10.1,29.15,WNW,296,4.5,8.5,19,-99.99,,,-99.99,WSDL version 342,2013-03-26 19:59:00,
2013-03-26 16:04:00,51.4,10.5,29.15,WSW,256,3.7,6.5,19,-99.99,,,-99.99,WSDL version 342,2013-03-26 20:04:00,
2013-03-26 16:09:00,51.3,10.4,29.15,WNW,302,3.5,6.0,19,-99.99,,,-99.99,WSDL version 342,2013-03-26 20:09:00,
2013-03-26 16:14:00,52.4,10.1,29.15,WNW,299,4.7,8.7,18,-99.99,,,-99.99,WSDL version 342,2013-03-26 20:14:00,
2013-03-26 16:19:00,53.3,10.9,29.18,West,262,3.6,8.7,18,-99.99,,,-99.99,WSDL version 342,2013-03-26 20:19:00,
2013-03-26 16:24:00,52.8,10.4,29.18,WNW,284,2.7,6.5,18,-99.99,,,-99.99,WSDL version 342,2013-03-26 20:24:00,
2013-03-26 16:29:00,51.8,10.2,29.18,WNW,293,2.3,4.9,19,-99.99,,,-99.99,WSDL version 342,2013-03-26 20:29:00,
2013-03-26 16:34:00,50.8,10.0,29.12,WSW,248,7.6,16.3,19,-99.99,,,-99.99,WSDL version 342,2013-03-26 20:34:00,
2013-03-26 16:39:00,49.1,8.6,29.12,WNW,293,5.8,16.3,19,-99.99,,,-99.99,WSDL version 342,2013-03-26 20:39:00,
2013-03-26 16:44:00,48.4,8.0,29.12,WNW,290,3.6,7.6,19,-99.99,,,-99.99,WSDL version 342,2013-03-26 20:44:00,
2013-03-26 16:49:00,48.2,7.9,29.15,WSW,251,5.3,10.5,19,-99.99,,,-99.99,WSDL version 342,2013-03-26 20:49:00,
2013-03-26 16:54:00,48.6,8.2,29.15,West,278,2.8,10.5,19,-99.99,,,-99.99,WSDL version 342,2013-03-26 20:54:00,
2013-03-26 16:59:00,48.6,8.2,29.15,West,274,5.5,8.5,19,-99.99,,,-99.99,WSDL version 342,2013-03-26 20:59:00,
2013-03-26 17:04:00,48.7,8.3,29.15,West,261,4.7,8.5,19,-99.99,,,-99.99,WSDL version 342,2013-03-26 21:04:00,
2013-03-26 17:09:00,48.7,8.3,29.15,West,280,4.1,7.6,19,-99.99,,,-99.99,WSDL version 342,2013-03-26 21:09:00,
2013-03-26 17:14:00,49.2,8.7,29.15,WNW,286,3.6,7.2,19,-99.99,,,-99.99,WSDL version 342,2013-03-26 21:14:00,
2013-03-26 17:19:00,50.0,9.4,29.15,WNW,300,4.6,7.2,19,-99.99,,,-99.99,WSDL version 342,2013-03-26 21:19:00,
2013-03-26 17:26:00,50.7,9.9,29.15,NW,312,3.1,7.2,19,-99.99,,,-99.99,WSDL version 342,2013-03-26 21:26:00,
2013-03-26 17:31:00,50.8,10.0,29.15,NNW,328,3.5,6.3,19,-99.99,,,-99.99,WSDL version 342,2013-03-26 21:31:00,
2013-03-26 17:36:00,50.2,9.6,29.15,NW,324,2.5,6.3,19,-99.99,,,-99.99,WSDL version 342,2013-03-26 21:36:00,
2013-03-26 17:41:00,49.5,8.9,29.15,WNW,302,2.8,6.0,19,-99.99,,,-99.99,WSDL version 342,2013-03-26 21:41:00,
2013-03-26 17:46:00,48.9,8.4,29.15,NNW,331,2.6,6.0,19,-99.99,,,-99.99,WSDL version 342,2013-03-26 21:46:00,
2013-03-26 17:52:00,48.1,10.8,29.15,WNW,298,1.7,4.9,22,-99.99,,,-99.99,WSDL version 342,2013-03-26 21:52:00,
2013-03-26 17:57:00,47.6,10.6,29.15,NW,308,2.9,3.8,22,-99.99,,,-99.99,WSDL version 342,2013-03-26 21:57:00,
2013-03-26 18:02:00,47.4,10.4,29.15,WNW,290,2.5,4.9,22,-99.99,,,-99.99,WSDL version 342,2013-03-26 22:02:00,
2013-03-26 18:07:00,47.4,10.4,29.18,West,270,1.1,4.9,22,-99.99,,,-99.99,WSDL version 342,2013-03-26 22:07:00,
2013-03-26 18:12:00,47.5,10.5,29.18,West,270,1.1,2.0,22,-99.99,,,-99.99,WSDL version 342,2013-03-26 22:12:00,
2013-03-26 18:20:00,47.3,10.4,29.18,West,270,1.1,0.0,22,-99.99,,,-99.99,WSDL version 342,2013-03-26 22:20:00,
2013-03-26 18:25:00,47.2,10.3,29.18,North,-999,-999.0,-999.0,22,-99.99,,,-99.99,WSDL version 342,2013-03-26 22:25:00,
2013-03-26 18:30:00,46.9,12.0,29.18,North,-999,-999.0,-999.0,24,-99.99,,,-99.99,WSDL version 342,2013-03-26 22:30:00,
2013-03-26 18:35:00,46.4,11.1,29.21,North,-999,-999.0,-999.0,22,-99.99,,,-99.99,WSDL version 342,2013-03-26 22:35:00,
2013-03-26 18:40:00,45.7,11.9,29.21,North,-999,-999.0,-999.0,25,-99.99,,,-99.99,WSDL version 342,2013-03-26 22:40:00,
2013-03-26 18:45:00,45.1,13.3,29.21,North,-999,-999.0,-999.0,27,-99.99,,,-99.99,WSDL version 342,2013-03-26 22:45:00,
2013-03-26 18:51:00,44.6,12.7,29.18,North,-999,-999.0,-999.0,27,-99.99,,,-99.99,WSDL version 342,2013-03-26 22:51:00,
2013-03-26 18:57:00,44.3,13.3,29.18,North,-999,-999.0,-999.0,28,-99.99,,,-99.99,WSDL version 342,2013-03-26 22:57:00,
2013-03-26 19:02:00,44.1,13.0,29.18,North,-999,-999.0,-999.0,28,-99.99,,,-99.99,WSDL version 342,2013-03-26 23:02:00,
2013-03-26 19:07:00,43.8,12.8,29.21,North,-999,-999.0,-999.0,28,-99.99,,,-99.99,WSDL version 342,2013-03-26 23:07:00,
2013-03-26 19:12:00,43.7,12.7,29.21,North,-999,-999.0,-999.0,28,-99.99,,,-99.99,WSDL version 342,2013-03-26 23:12:00,
2013-03-26 19:18:00,43.5,12.6,29.21,North,-999,-999.0,-999.0,28,-99.99,,,-99.99,WSDL version 342,2013-03-26 23:18:00,
2013-03-26 19:23:00,43.3,12.4,29.21,North,-999,-999.0,-999.0,28,-99.99,,,-99.99,WSDL version 342,2013-03-26 23:23:00,
2013-03-26 19:28:00,43.4,12.5,29.21,North,-999,-999.0,-999.0,28,-99.99,,,-99.99,WSDL version 342,2013-03-26 23:28:00,
2013-03-26 19:33:00,43.3,12.3,29.21,North,-999,-999.0,-999.0,28,-99.99,,,-99.99,WSDL version 342,2013-03-26 23:33:00,
2013-03-26 19:38:00,43.2,13.1,29.21,North,-999,-999.0,-999.0,29,-99.99,,,-99.99,WSDL version 342,2013-03-26 23:38:00,
2013-03-26 19:43:00,43.2,13.1,29.21,North,-999,-999.0,-999.0,29,-99.99,,,-99.99,WSDL version 342,2013-03-26 23:43:00,
2013-03-26 19:49:00,43.0,13.1,29.21,North,-999,-999.0,-999.0,30,-99.99,,,-99.99,WSDL version 342,2013-03-26 23:49:00,
2013-03-26 19:55:00,42.5,14.4,29.21,North,-999,-999.0,-999.0,32,-99.99,,,-99.99,WSDL version 342,2013-03-26 23:55:00,
2013-03-26 20:00:00,42.4,14.3,29.21,North,-999,-999.0,-999.0,31,-99.99,,,-99.99,WSDL version 342,2013-03-27 00:00:00,
2013-03-26 20:05:00,42.3,13.8,29.18,North,-999,-999.0,-999.0,31,-99.99,,,-99.99,WSDL version 342,2013-03-27 00:05:00,
2013-03-26 20:10:00,42.2,13.7,29.18,North,-999,-999.0,-999.0,31,-99.99,,,-99.99,WSDL version 342,2013-03-27 00:10:00,
2013-03-26 20:15:00,41.9,13.5,29.18,North,-999,-999.0,-999.0,31,-99.99,,,-99.99,WSDL version 342,2013-03-27 00:15:00,
2013-03-26 20:20:00,41.5,13.9,29.18,North,-999,-999.0,-999.0,32,-99.99,,,-99.99,WSDL version 342,2013-03-27 00:20:00,
2013-03-26 20:25:00,41.5,13.8,29.18,North,-999,-999.0,-999.0,32,-99.99,,,-99.99,WSDL version 342,2013-03-27 00:25:00,
2013-03-26 20:30:00,41.4,13.7,29.18,North,-999,-999.0,-999.0,32,-99.99,,,-99.99,WSDL version 342,2013-03-27 00:30:00,
2013-03-26 20:37:00,41.2,13.6,29.18,North,-999,-999.0,-999.0,32,-99.99,,,-99.99,WSDL version 342,2013-03-27 00:37:00,
2013-03-26 20:42:00,41.1,13.5,29.18,North,-999,-999.0,-999.0,32,-99.99,,,-99.99,WSDL version 342,2013-03-27 00:42:00,
2013-03-26 20:47:00,40.9,13.6,29.18,North,-999,-999.0,-999.0,33,-99.99,,,-99.99,WSDL version 342,2013-03-27 00:47:00,
2013-03-26 20:52:00,40.8,13.9,29.18,North,-999,-999.0,-999.0,33,-99.99,,,-99.99,WSDL version 342,2013-03-27 00:52:00,
2013-03-26 20:57:00,40.6,14.3,29.18,North,-999,-999.0,-999.0,34,-99.99,,,-99.99,WSDL version 342,2013-03-27 00:57:00,
2013-03-26 21:02:00,40.6,14.7,29.18,North,-999,-999.0,-999.0,35,-99.99,,,-99.99,WSDL version 342,2013-03-27 01:02:00,
2013-03-26 21:07:00,40.5,15.3,29.18,North,-999,-999.0,-999.0,37,-99.99,,,-99.99,WSDL version 342,2013-03-27 01:07:00,
2013-03-26 21:12:00,40.5,16.2,29.18,North,-999,-999.0,-999.0,37,-99.99,,,-99.99,WSDL version 342,2013-03-27 01:12:00,
2013-03-26 21:17:00,40.5,16.2,29.18,North,-999,-999.0,-999.0,37,-99.99,,,-99.99,WSDL version 342,2013-03-27 01:17:00,
2013-03-26 21:22:00,40.4,16.8,29.21,North,-999,-999.0,-999.0,38,-99.99,,,-99.99,WSDL version 342,2013-03-27 01:22:00,
2013-03-26 21:27:00,40.3,16.7,29.21,North,-999,-999.0,-999.0,38,-99.99,,,-99.99,WSDL version 342,2013-03-27 01:27:00,
2013-03-26 21:32:00,40.2,16.6,29.21,North,-999,-999.0,-999.0,38,-99.99,,,-99.99,WSDL version 342,2013-03-27 01:32:00,
2013-03-26 21:38:00,40.0,16.6,29.21,North,-999,-999.0,-999.0,38,-99.99,,,-99.99,WSDL version 342,2013-03-27 01:38:00,
2013-03-26 21:43:00,39.8,16.7,29.21,North,-999,-999.0,-999.0,39,-99.99,,,-99.99,WSDL version 342,2013-03-27 01:43:00,
2013-03-26 21:48:00,39.7,16.8,29.21,North,-999,-999.0,-999.0,39,-99.99,,,-99.99,WSDL version 342,2013-03-27 01:48:00,
2013-03-26 21:53:00,39.6,16.6,29.21,North,-999,-999.0,-999.0,39,-99.99,,,-99.99,WSDL version 342,2013-03-27 01:53:00,
2013-03-26 21:58:00,39.2,16.3,29.21,North,-999,-999.0,-999.0,39,-99.99,,,-99.99,WSDL version 342,2013-03-27 01:58:00,
2013-03-26 22:04:00,39.1,16.5,29.21,North,-999,-999.0,-999.0,40,-99.99,,,-99.99,WSDL version 342,2013-03-27 02:04:00,
2013-03-26 22:09:00,38.8,16.8,29.21,North,-999,-999.0,-999.0,41,-99.99,,,-99.99,WSDL version 342,2013-03-27 02:09:00,
2013-03-26 22:14:00,38.8,17.1,29.21,North,-999,-999.0,-999.0,41,-99.99,,,-99.99,WSDL version 342,2013-03-27 02:14:00,
2013-03-26 22:19:00,38.5,16.8,29.21,North,-999,-999.0,-999.0,41,-99.99,,,-99.99,WSDL version 342,2013-03-27 02:19:00,
2013-03-26 22:24:00,38.4,16.7,29.21,North,-999,-999.0,-999.0,41,-99.99,,,-99.99,WSDL version 342,2013-03-27 02:24:00,
2013-03-26 22:29:00,38.1,16.8,29.21,North,-999,-999.0,-999.0,42,-99.99,,,-99.99,WSDL version 342,2013-03-27 02:29:00,
2013-03-26 22:34:00,38.0,17.0,29.21,North,-999,-999.0,-999.0,42,-99.99,,,-99.99,WSDL version 342,2013-03-27 02:34:00,
2013-03-26 22:39:00,37.8,17.1,29.21,North,-999,-999.0,-999.0,43,-99.99,,,-99.99,WSDL version 342,2013-03-27 02:39:00,
2013-03-26 22:44:00,37.8,17.9,29.21,North,-999,-999.0,-999.0,45,-99.99,,,-99.99,WSDL version 342,2013-03-27 02:44:00,
2013-03-26 22:49:00,37.7,17.9,29.21,North,-999,-999.0,-999.0,44,-99.99,,,-99.99,WSDL version 342,2013-03-27 02:49:00,
2013-03-26 22:54:00,37.4,18.3,29.21,North,-999,-999.0,-999.0,46,-99.99,,,-99.99,WSDL version 342,2013-03-27 02:54:00,
2013-03-26 22:59:00,37.5,18.1,29.21,North,-999,-999.0,-999.0,45,-99.99,,,-99.99,WSDL version 342,2013-03-27 02:59:00,
2013-03-26 23:04:00,37.3,18.4,29.21,North,-999,-999.0,-999.0,46,-99.99,,,-99.99,WSDL version 342,2013-03-27 03:04:00,
2013-03-26 23:09:00,37.2,18.4,29.21,North,-999,-999.0,-999.0,47,-99.99,,,-99.99,WSDL version 342,2013-03-27 03:09:00,
2013-03-26 23:14:00,37.1,18.8,29.21,North,-999,-999.0,-999.0,47,-99.99,,,-99.99,WSDL version 342,2013-03-27 03:14:00,
2013-03-26 23:19:00,36.9,18.6,29.21,North,-999,-999.0,-999.0,47,-99.99,,,-99.99,WSDL version 342,2013-03-27 03:19:00,
2013-03-26 23:24:00,36.9,18.6,29.21,WNW,289,3.3,6.0,48,-99.99,,,-99.99,WSDL version 342,2013-03-27 03:24:00,
2013-03-26 23:29:00,36.7,18.9,29.21,WNW,293,3.6,6.0,48,-99.99,,,-99.99,WSDL version 342,2013-03-27 03:29:00,
2013-03-26 23:34:00,36.8,19.0,29.21,WNW,285,4.3,5.6,48,-99.99,,,-99.99,WSDL version 342,2013-03-27 03:34:00,
2013-03-26 23:39:00,36.5,18.7,29.21,West,267,3.1,4.9,48,-99.99,,,-99.99,WSDL version 342,2013-03-27 03:39:00,
2013-03-26 23:44:00,36.3,18.8,29.21,West,263,3.4,4.3,49,-99.99,,,-99.99,WSDL version 342,2013-03-27 03:44:00,
2013-03-26 23:49:00,36.2,18.9,29.21,West,281,3.0,4.3,49,-99.99,,,-99.99,WSDL version 342,2013-03-27 03:49:00,
2013-03-26 23:54:00,36.0,18.7,29.21,WNW,283,3.2,4.9,49,-99.99,,,-99.99,WSDL version 342,2013-03-27 03:54:00,
2013-03-26 23:59:00,35.9,18.6,29.21,West,278,3.0,4.9,49,-99.99,,,-99.99,WSDL version 342,2013-03-27 03:59:00,